Regional Weather Roundup
Issued by NWS Grand Forks, ND

Current Version | Previous Version | Text Only | Print | Product List | Glossary On
Versions: 1 2 3 4 5 6 7 8 9 10 11 12 13 14 15 16 17 18 19 20 21 22 23 24 25 26 27 28 29 30 31 32 33 34 35 36 37 38 39 40 41 42 43 44 45 46 47 48 49 50
530 ASUS43 KFGF 200510 RWRFGF PRAIRIE TO PINES WEATHER ROUNDUP NATIONAL WEATHER SERVICE EASTERN NORTH DAKOTA/GRAND FORKS ND 1200 AM CDT TUE APR 20 2021 **SATELLITE DATA USED TO AUGMENT SKY COVER AT AUTOMATED STATIONS** ***** WEATHER ACROSS EASTERN NORTH DAKOTA ***** CITY SKY/WX TMP DP RH WIND PRES REMARKS GRAND FORKS FAIR 23 15 71 NW8 30.18S WCI 14 GRAND FRKS AFB CLEAR 22 15 74 NW7 30.18S WCI 14 GRAND FRKS NWS N/A 26 18 73 N5 30.14R WCI 20 DEVILS LAKE FAIR 23 16 74 E3 30.18S FARGO FAIR 26 15 63 N8 30.18S WCI 18 WAHPETON ARPT N/A N/A N/A N/A MISG N/A $$ ***** WEATHER ACROSS CENTRAL AND WESTERN NORTH DAKOTA ***** CITY SKY/WX TMP DP RH WIND PRES REMARKS BISMARCK FAIR 23 14 68 CALM 30.20S MINOT MOCLDY 32 16 51 W6 30.17S JAMESTOWN FAIR 23 14 68 NW3 30.16F MINOT AFB MOCLDY 31 20 61 NW5 30.16S GARRISON N/A 25 15 66 W3 30.17S WILLISTON NOT AVBL DICKINSON CLOUDY 29 18 63 W8 30.14F WCI 21 HETTINGER CLOUDY 26 18 71 SW7 30.17F WCI 18 $$ ***** OTHER AIRPORT OBSERVATIONS IN OUR AREA ***** CITY SKY/WX TMP DP RH WIND PRES REMARKS WALHALLA FAIR 21 12 68 NW6 30.20S WCI 14 GRAFTON AIRPOR NOT AVBL VALLEY CITY AR MOCLDY 28 18 64 N7 30.19S WCI 21 CANDO MOCLDY 21 16 79 CALM 30.20S CAVALIER APRT FAIR 25 14 63 NW6 30.20S WCI 18 GWINNER CLOUDY 25 16 68 W8 30.17S WCI 16 ROLLA CLOUDY 21 16 79 CALM 30.17S ***** THE ABOVE OBSERVATIONS ARE NON NWS ARE NOT QUALITY CONTROLLED AND MAY MIS-REPORT RAIN FOR SNOW... $$ ***** WEATHER ACROSS NORTHERN MINNESOTA ***** CITY SKY/WX TMP DP RH WIND PRES REMARKS FLAG ISLAND CLOUDY 30 16 55 NW14 30.11R WCI 20 WARROAD MOCLDY 27 18 69 W7 30.13S WCI 19 ROSEAU FAIR 30 N/A N/A NW7 30.14S WCI 23 HALLOCK CLOUDY 28 18 64 N5 30.18S WCI 23 THF RVR FALLS FAIR 28 16 60 N14 30.15S WCI 17 BAUDETTE CLOUDY 29 17 61 NW9 30.10R WCI 20 WASKISH CLOUDY 28 16 59 NW7G17 30.10S WCI 21 CROOKSTON FAIR 25 18 74 N8 30.17S WCI 16 STEPHEN NDAWN N/A 23 12 63 VRB5 N/A WCI 17 GREENBUSH NDAW N/A 25 14 63 MISG N/A $$ ***** WEATHER ACROSS CENTRAL AND WEST MINNESOTA ***** CITY SKY/WX TMP DP RH WIND PRES REMARKS FOSSTON CLOUDY 27 16 63 N7 30.13S WCI 19 BEMIDJI FAIR 25 13 61 NW8 30.10S WCI 16 PARK RAPIDS CLOUDY 28 13 53 N10 30.09S WCI 19 ELBOW LAKE FAIR 28 18 66 W7 30.15S WCI 21 WADENA N/A 28 18 64 NW7 30.11R WCI 21 DETROIT LAKES MOCLDY 27 16 63 NW7 30.13S WCI 19 MOORHEAD FAIR 28 16 59 N8 30.18S WCI 20 FERGUS FALLS FAIR 27 16 63 N8 30.12S WCI 18 MORRIS MN FAIR 27 12 54 NW9 30.16S WCI 17 STAPLES CLOUDY 34 16 47 NW9 30.10R $$ ***** WEATHER ELSEWHERE ACROSS MINNESOTA ***** CITY SKY/WX TMP DP RH WIND PRES REMARKS DULUTH FAIR 30 13 49 NW6 30.01S WCI 24 INTRNTL FALLS CLOUDY 29 15 56 NW8 30.06S WCI 21 ELY CLOUDY 30 10 43 NW6 30.01R WCI 24 CLOQUET FAIR 27 10 50 NW5 30.02S WCI 21 WHEATON NOT AVBL BRAINERD CLOUDY 34 12 40 N9 30.08S HIBBING MOCLDY 28 14 55 NW9 30.04R WCI 19 ALEXANDRIA CLOUDY 32 16 51 NW12G22 30.12S WCI 23 SAINT CLOUD CLOUDY 31 18 58 NW7 30.08S WCI 24 MINNEAPOLIS FAIR 32 17 54 W3 30.08F $$ ***** WEATHER ACROSS SOUTH DAKOTA ***** CITY SKY/WX TMP DP RH WIND PRES REMARKS SIOUX FALLS FAIR 31 14 49 NW9 30.16S WCI 23 BROOKINGS FAIR 25 14 63 NW7 30.15F WCI 17 WATERTOWN CLOUDY 30 15 53 N8 30.14F WCI 22 HURON FAIR 21 12 68 NW6 30.20F WCI 13 SISSETON N/A 32 15 49 NW6 30.16F ABERDEEN FAIR 22 12 65 W6 30.20S WCI 14 MITCHELL FAIR 25 15 66 NW6 30.21F WCI 18 PIERRE FAIR 23 11 60 W6 30.21F WCI 16 MOBRIDGE FAIR 18 10 71 CALM 30.18S RAPID CITY LGT SNOW 28 25 88 NW8 30.20F FOG WCI 20 $$ ***** SOME WEATHER IN NEARBY STATES ***** CITY SKY/WX TMP DP RH WIND PRES REMARKS GLASGOW MT FAIR 28 19 69 NW7 30.27R WCI 21 GREAT FALLS MT CLOUDY 29 27 92 W7 30.37S WCI 22 CHEYENNE WY FLURRIES 17 11 77 N12G21 30.17S WCI 4 SCOTTSBLUFF NE FAIR 25 18 74 NW10 30.25R WCI 15 OMAHA NE CLOUDY 37 22 54 NW7 30.15S DES MOINES IA CLOUDY 37 17 44 NW9 30.12R DAVENPORT IA MOCLDY 37 25 61 NW6 30.07F CHICAGO IL CLOUDY 41 22 46 NW10 29.99S EAU CLAIRE WI CLOUDY 34 21 59 W5 30.04R LA CROSSE WI CLOUDY 37 24 59 NW9 30.06R $$ ***** SOME NATIONAL WEATHER ***** CITY SKY/WX TMP DP RH WIND PRES REMARKS LA GUARDIA NY FAIR 56 39 53 S6 29.87S RALEIGH NC FAIR 50 43 77 CALM 29.99R ATLANTA GA MOCLDY 58 42 55 W3 29.99S NEW ORLEANS LA MOCLDY 65 56 72 CALM 30.01S OKLAHOMA CITY FAIR 58 37 45 W10 29.93R ALBUQUERQUE NM FAIR 56 14 19 SW10 29.94R SALT LAKE CITY FAIR 46 26 45 N7 30.10R LOS ANGELES CA FAIR 59 54 83 S5 29.97R BOISE ID FAIR 52 23 32 W8 30.10R SEATTLE WA MOCLDY 60 40 47 N7 30.17R $$ *** WEATHER ACROSS MANITOBA...SASKATCHEWAN AND ONTARIO *** ***ONTARIO*** CITY SKY/WX TMP DP RH WIND PRES REMARKS GERALDTON CLOUDY 14 7 73 N13G20 29.94R WCI 0 THUNDER BAY PTCLDY 18 18 100 W6 29.99R WCI 9 SIOUX LOOKOUT PTCLDY 25 9 50 NE6 30.05R WCI 18 TORONTO CLOUDY 43 39 87 SW8 29.79S BIG TROUT LK MOCLDY 14 5 67 NW7 30.12S WCI 4 PICKLE LAKE CLOUDY 19 7 58 NE9 30.05S WCI 9 DRYDEN CLOUDY 28 9 43 N10G17 30.04R WCI 19 KENORA MOCLDY 27 10 50 N6 30.09S WCI 20 $$ *** MANITOBA*** CITY SKY/WX TMP DP RH WIND PRES REMARKS BRANDON MOCLDY 25 16 68 N2 30.21R DAUPHIN CLOUDY 27 19 74 NW5 30.25R WCI 21 ISLAND LAKE NOT AVBL PILOT MOUND N/A 21 16 79 NE2 N/A THE PAS CLOUDY 28 18 64 NW6 30.28S WCI 22 THOMPSON FLURRIES 23 10 58 N15 30.27S WCI 10 WINNIPEG MOCLDY 23 16 74 N6 30.19S WCI 16 LYNN LAKE CLEAR 19 12 73 NW6 30.31S WCI 11 CHURCHILL FLURRIES 7 5 92 W8 30.24F WCI -6 GILLAM CLOUDY 10 3 72 VRB2 30.27S $$ ***SASKATCHEWAN*** CITY SKY/WX TMP DP RH WIND PRES REMARKS ESTEVAN PTCLDY 25 21 86 NW9 30.19S WCI 15 KINDERSLEY CLEAR 21 16 79 N6 30.31R WCI 14 LLOYDMINSTER CLEAR 30 14 51 N5 30.33S PRINCE ALBERT MOCLDY 27 16 63 N6 30.35R WCI 20 REGINA MOCLDY 27 18 69 N8 30.25R WCI 18 YORKTON PTCLDY 21 19 93 NW6 30.22R WCI 14 N. BATTLEFORD CLEAR 28 16 59 N6 30.35S WCI 22 LA RONGE CLEAR 25 14 63 N5 30.37R WCI 19 SASKATOON CLOUDY 27 21 80 N6 30.31S WCI 20 SWIFT CURRENT MOCLDY 27 25 93 NW7 30.26R WCI 19 $$ NOTE: THESE ARE AUTOMATED STATIONS WITH LIMITED QUALITY CONTROL "FAIR" INDICATES FEW OR NO CLOUDS BELOW 12,000 FEET WITH NO SIGNIFICANT WEATHER AND/OR OBSTRUCTIONS TO VISIBILITY. SKY/WX - SKY CONDITION AND SIGNIFICANT WEATHER. TMP - AIR TEMPERATURE. DP - DEWPOINT TEMPERATURE. RH - RELATIVE HUMIDITY. PRES - PRESSURE. HX - HEAT INDEX. WCI - WIND CHILL INDEX. $

USA.gov is the U.S. government's official web portal to all federal, state and local government web resources and services.